Weather in Alekseyevskaya

Russia / Volgograd Oblast     50°17′24″N   42°11′04″E
temp.,
°C
wind,
m/s
gust,
m/s
humid.,
%
clouds,
%
prec.,
mm/h
press.,
hPa
HPBL,
m
25 february, thu
thu2500:00−15ssw357995 0.0 1039293
03:00−14ssw488098 0.0 1037309
06:00−13ssw5993100 0.3 1035424
09:00−12sw61187100 0.4 1033443
12:00−9sw71188100 0.3 1030522
15:00−7sw71394100 1.9 1026561
18:00−5sw71594100 0.5 1023471
21:00−2wsw71493100 1.3 1020450
26 february, fri
fri2600:000w71494100 0.1 1019369
03:00+2w61297100 0.4 1018351
06:00+2w51299100 0.2 1017298
09:00+2w41099100 0.4 1018242
12:00+2w41099100 0.1 1017259
15:00+3w613100100 0.2 1016382
18:00+3w61398100 0.0 1014416
21:00+3w51397100 0.1 1013356
27 february, sat
sat2700:00+2wsw61495100 0.1 1011387
03:00+2w51295100 0.1 1010413
06:00+1w41094100 0.0 1009379
09:00+1wsw51094100 0.1 1008401
12:00+2w61094100 0.0 1007662
15:00+3w71088100 0.2 1007805
18:00+1w499485 0.1 1006389
21:00+1w5109291 0.2 1007499
28 february, sun
sun2800:000w61097100 0.0 1006516
03:000w61195100 0.2 1007571
06:00−5nnw7107899 0.2 1008800
09:00−7nnw7976100 0.3 1011735
12:00−6nnw6973100 0.0 1013747
15:00−6nnw6874100 0.1 1014741
18:00−7nnw6979100 0.1 1016705
21:00−9nnw6880100 0.1 1019663
1 march, mon
mon100:00−9nnw5781100 0.1 1021638
03:00−10nnw4782100 0.1 1022612
06:00−10nnw4784100 0.0 1024582
09:00−10nnw577997 0.0 1026560
12:00−7nnw567192 0.0 1027635
15:00−6nnw466858 0.0 1027653
18:00−7nnw47777 0.0 1028580
21:00−8nnw37854 0.0 1030405